Weather History for KCQC - October, 2013

Change the Weather History Date:

Friday, October 18, 2013

  Actual Average (KSAF) Record (KSAF)
Temperature  
Mean Temperature 42 °F -  
Max Temperature 57 °F 66 °F 82 °F (2003)
Min Temperature 27 °F 28 °F 21 °F (1980)
Degree Days  
Heating Degree Days 24    
Moisture  
Dew Point 20 °F    
Average Humidity 50    
Maximum Humidity 89    
Minimum Humidity 17    
Precipitation  
Precipitation 0.00 in - - ()
Sea Level Pressure  
Sea Level Pressure 30.02 in    
Wind  
Wind Speed 14 mph (WNW)    
Max Wind Speed 25 mph    
Max Gust Speed 34 mph    
Visibility 10 miles    
Events      
Averages and records for this station are not official NWS values.
T = Trace of Precipitation, MM = Missing Value Source: NWS Daily Summary

Daily Weather History Graph

Daily Weather History Graph

Search for Another Location

Airport or City:

Trip Planner

Search our weather history database for the weather conditions in past years. The results will help you decide how hot, cold, wet, or windy it might be!

Date:

Astronomy

Oct. 18, 2013 Rise Set
Actual Time 7:11 AM MDT 6:23 PM MDT
Civil Twilight 6:45 AM MDT 6:49 PM MDT
Nautical Twilight 6:16 AM MDT 7:18 PM MDT
Astronomical Twilight 5:46 AM MDT 7:47 PM MDT
Moon 6:16 PM MDT (10/18) 6:49 AM MDT (10/18)
Length of Visible Light 12h 03m
Length of Day
11h 12m
Full, 100% of the Moon is Illuminated
Oct 18
Full
Oct 18
Full
Oct 26
Last Quarter
Nov 3
New
Nov 9
First Quarter

Hourly Weather History & Observations

Time (MDT) Temp. Windchill Dew Point Humidity Pressure Visibility Wind Dir Wind Speed Gust Speed Precip Events Conditions
12:53 AM 35.1 °F 26.4 °F 19.0 °F 52% 29.91 in 10.0 mi WNW 12.7 mph - N/A   Clear
1:53 AM 37.9 °F 29.6 °F 16.0 °F 41% 29.89 in 10.0 mi WNW 13.8 mph - N/A   Clear
2:53 AM 34.0 °F 25.0 °F 16.0 °F 48% 29.89 in 10.0 mi WNW 12.7 mph - N/A   Clear
3:53 AM 34.0 °F 26.0 °F 16.0 °F 48% 29.88 in 10.0 mi West 10.4 mph - N/A   Clear
4:53 AM 30.9 °F 21.2 °F 17.1 °F 57% 29.90 in 10.0 mi West 12.7 mph - N/A   Clear
5:53 AM 34.0 °F 24.6 °F 16.0 °F 48% 29.90 in 10.0 mi WNW 13.8 mph - N/A   Clear
6:53 AM 30.9 °F 21.2 °F 16.0 °F 54% 29.96 in 10.0 mi WNW 12.7 mph - N/A   Clear
7:53 AM 37.0 °F 28.9 °F 17.1 °F 44% 29.96 in 10.0 mi WNW 12.7 mph - N/A   Clear
8:53 AM 42.1 °F 33.9 °F 16.0 °F 35% 29.98 in 10.0 mi NW 17.3 mph - N/A   Clear
9:53 AM 48.9 °F - 16.0 °F 27% 29.97 in 10.0 mi WNW 23.0 mph - N/A   Clear
10:53 AM 52.0 °F - 15.1 °F 23% 29.96 in 10.0 mi WNW 21.9 mph 34.5 mph N/A   Clear
11:53 AM 54.0 °F - 14.0 °F 21% 29.95 in 10.0 mi WNW 25.3 mph 32.2 mph N/A   Clear
12:53 PM 55.0 °F - 10.0 °F 17% 29.96 in 10.0 mi WNW 21.9 mph 31.1 mph N/A   Clear
1:53 PM 55.0 °F - 10.9 °F 17% 29.94 in 10.0 mi NNW 19.6 mph 28.8 mph N/A   Clear
2:53 PM 55.9 °F - 10.9 °F 17% 29.97 in 10.0 mi WNW 17.3 mph 23.0 mph N/A   Clear
3:27 PM 50.0 °F - 28.4 °F 43% 30.10 in 10.0 mi East 18.4 mph - N/A   Clear
3:53 PM 48.9 °F - 30.0 °F 48% 30.04 in 10.0 mi East 15.0 mph 20.7 mph N/A   Clear
4:53 PM 46.0 °F 39.9 °F 30.0 °F 54% 30.08 in 10.0 mi East 13.8 mph - N/A   Clear
5:53 PM 39.9 °F 32.5 °F 28.9 °F 65% 30.12 in 10.0 mi East 12.7 mph - N/A   Clear
6:53 PM 36.0 °F 27.1 °F 28.0 °F 73% 30.18 in 10.0 mi East 13.8 mph - N/A   Clear
7:53 PM 33.1 °F 25.5 °F 27.0 °F 78% 30.20 in 10.0 mi ESE 9.2 mph - N/A   Clear
8:53 PM 30.0 °F 23.2 °F 26.1 °F 85% 30.20 in 10.0 mi ESE 6.9 mph - N/A   Clear
9:53 PM 28.9 °F 23.9 °F 25.0 °F 85% 30.18 in 10.0 mi SE 4.6 mph - N/A   Clear
10:53 PM 28.0 °F 22.8 °F 24.1 °F 85% 30.17 in 10.0 mi SSE 4.6 mph - N/A   Clear
11:53 PM 27.0 °F 20.5 °F 24.1 °F 89% 30.15 in 10.0 mi SSW 5.8 mph - N/A   Clear